sat.trackr.live / text

‹ back to catalog

STARLINK-36979

NORAD 67996 · 2026-039L

PAYLOAD ACTIVE UNKNOWN

§ Identity

Operator
Country
US
Launch date
2026-02-27
Launch site
AFETR
Launch vehicle
Mass (kg)
RCS (m²)

Purposes: comms

External: N2YO · Heavens-Above · Gunter

§ Orbital elements

Epoch: 2026-05-24T12:50:30.274368Z

Period
94.26 min
Inclination
43.0043°
Eccentricity
0.0001926
Mean motion
15.27627486 rev/d
Perigee alt
481.6 km
Apogee alt
484.2 km
Semi-major
6,861.0 km
B*
1.0674e-3
RAAN
340.5359°
Arg perigee
271.3469°
Mean anomaly
88.7162°
Rev number
1,330

§ Raw data

STARLINK-369791 67996U 26039L   26144.53507262  .00029269  00000+0  10674-2 0  99912 67996  43.0043 340.5359 0001926 271.3469  88.7162 15.27627486 13309

JSON: /api/v1/satellites/67996 · /tle

For live sub-satellite position, see the globe view (requires WebGL).

§ Visibility from observer

Set your observer location to see the next 7 days of passes ≥ 10°. The values pass through the URL so the page stays shareable.

No JS? Fill the form by hand. The geolocation button needs JavaScript.